Zurück zum Katalog

SL-8 R/B

AktivLEO
NORAD 11751·ROCKET BODY·🇷🇺 Russia

Gestartet Apr 3, 1980 von Plesetsk Cosmodrome

Loading…

Nächste Überflüge (nächste 24 Stunden)

TLE

AktuellSource: Space-Track

Epoche: Sep 13, 2026, 22:16 UTC

1 11751U 80026B   26256.92832700  .00000010  00000-0  91438-4 0  9993
2 11751  65.8406  52.3341 0020675 276.2511 253.5626 13.77360332334462

Verfolge SL-8 R/B in Echtzeit mit AllMySat

Download on the App Store